FW0192 Weather Reports


time (UTC)temp
C
wind
direction
speed
KPH
gust
KPH
rain 1hr
cm
rain 24hr
cm
rain mn
cm
humidity
%
barometer
mb
20260505102016 4 27 16.1 22.5 0.03 0.56 0.10 92 1007.3
20260505101515 4 57 9.7 20.9 0.03 0.56 0.10 92 1007.1
20260505101015 5 49 9.7 19.3 0.00 0.53 0.08 92 1007.0
20260505100513 5 40 11.3 22.5 0.00 0.53 0.08 92 1006.8
20260505100012 5 39 12.9 25.7 0.00 0.53 0.08 92 1006.5
20260505095511 5 66 9.7 25.7 0.03 0.53 0.08 92 1006.6
20260505095010 5 332 14.5 27.4 0.03 0.53 0.08 92 1006.5
20260505094510 5 49 14.5 29.0 0.03 0.53 0.08 92 1006.3
20260505094009 5 60 17.7 29.0 0.03 0.53 0.08 92 1006.0
20260505093508 5 64 16.1 24.1 0.03 0.53 0.08 92 1006.2
20260505093007 5 42 12.9 25.7 0.03 0.53 0.08 92 1006.3
20260505092507 5 23 12.9 29.0 0.05 0.53 0.08 92 1006.2
20260505092007 5 32 17.7 29.0 0.05 0.53 0.08 92 1006.0
20260505091505 5 35 17.7 25.7 0.05 0.53 0.08 93 1006.0
20260505091004 5 30 17.7 25.7 0.05 0.53 0.08 93 1006.0
20260505090504 5 46 14.5 27.4 0.05 0.53 0.08 93 1006.0
20260505090003 5 32 14.5 25.7 0.05 0.51 0.05 93 1006.0
20260505085502 5 59 16.1 25.7 0.05 0.51 0.05 93 1006.1
20260505085001 5 47 14.5 27.4 0.05 0.51 0.05 93 1006.1
20260505084615 5 50 14.5 29.0 0.05 0.51 0.05 93 1006.0
20260505084100 5 51 19.3 29.0 0.05 0.51 0.05 93 1005.9
20260505083602 5 59 17.7 29.0 0.05 0.51 0.05 93 1006.0
20260505083111 5 40 16.1 29.0 0.05 0.51 0.05 92 1006.0
20260505082557 5 57 14.5 25.7 0.05 0.51 0.05 92 1006.1
20260505082056 5 67 14.5 25.7 0.03 0.48 0.03 92 1006.0
20260505081602 5 39 14.5 27.4 0.03 0.48 0.03 91 1005.9
20260505081054 6 35 14.5 27.4 0.03 0.48 0.03 90 1005.9
20260505080552 6 56 12.9 27.4 0.03 0.48 0.03 89 1005.9
20260505080059 6 59 16.1 32.2 0.00 0.46 0.00 87 1006.0
20260505075549 8 17 22.5 32.2 0.00 0.46 0.00 87 1006.0
20260505075048 8 80 6.4 12.9 0.00 0.46 0.00 88 1006.2
20260505074548 8 136 3.2 8.0 0.00 0.46 0.00 88 1006.2
20260505074047 8 138 3.2 4.8 0.00 0.46 0.00 88 1006.1
20260505073548 8 138 1.6 4.8 0.00 0.46 0.00 88 1006.1
20260505073053 8 138 0.0 3.2 0.00 0.46 0.00 87 1006.2
20260505072546 8 138 0.0 3.2 0.00 0.46 0.00 87 1006.1
20260505072046 8 138 0.0 3.2 0.00 0.46 0.00 88 1006.1
20260505071549 8 138 0.0 6.4 0.00 0.46 0.00 87 1006.0
20260505071049 8 138 1.6 6.4 0.00 0.46 0.00 87 1005.9
20260505070545 8 138 1.6 8.0 0.00 0.46 0.00 87 1005.8
20260505070051 8 138 3.2 11.3 0.00 0.46 0.00 87 1005.7
20260505065544 8 138 4.8 11.3 0.00 0.46 0.00 88 1005.6
20260505065042 8 140 4.8 11.3 0.00 0.46 0.00 88 1005.6
20260505064542 8 140 6.4 11.3 0.00 0.46 0.00 89 1005.6
20260505064040 8 140 4.8 11.3 0.00 0.46 0.00 89 1005.7
20260505063540 8 140 4.8 11.3 0.00 0.46 0.00 89 1005.8
20260505063048 8 140 3.2 12.9 0.00 0.46 0.00 90 1005.8
20260505062540 8 140 3.2 14.5 0.00 0.46 0.00 90 1005.8
20260505062038 8 144 4.8 14.5 0.00 0.46 0.00 91 1005.9
20260505061536 8 177 4.8 11.3 0.00 0.46 0.00 91 1005.9
20260505061035 9 204 1.6 8.0 0.00 0.46 0.00 92 1005.8
20260505060536 9 205 3.2 8.0 0.00 0.46 0.00 91 1005.8
20260505060052 9 211 1.6 8.0 0.00 0.46 0.00 91 1005.9
20260505055532 9 211 3.2 8.0 0.00 0.46 0.46 91 1005.8
20260505055031 9 212 3.2 8.0 0.03 0.46 0.46 91 1005.8
20260505054531 9 213 1.6 6.4 0.03 0.46 0.46 92 1005.7
20260505054034 9 217 1.6 6.4 0.03 0.46 0.46 92 1005.7
20260505053531 9 219 3.2 6.4 0.03 0.46 0.46 91 1005.6
20260505053032 9 221 1.6 8.0 0.05 0.46 0.46 91 1005.6
20260505052529 9 221 1.6 8.0 0.08 0.46 0.46 91 1005.6
20260505052029 9 227 3.2 9.7 0.08 0.46 0.46 91 1005.6
20260505051530 9 229 6.4 9.7 0.10 0.46 0.46 91 1005.4
20260505051028 9 232 4.8 9.7 0.13 0.46 0.46 90 1005.4
20260505050528 9 232 4.8 9.7 0.15 0.46 0.46 89 1005.4
20260505041531 9 248 3.2 11.3 0.30 0.36 0.36 88 1005.5
20260505041026 10 248 4.8 12.9 0.30 0.33 0.33 87 1005.5
20260505040530 10 248 6.4 12.9 0.30 0.30 0.30 87 1005.4
20260505040025 10 249 6.4 14.5 0.28 0.28 0.28 86 1005.3
20260505035527 10 263 8.0 14.5 0.25 0.25 0.25 86 1005.2
20260505035023 10 276 9.7 14.5 0.20 0.20 0.20 85 1005.2
20260505034524 10 294 6.4 11.3 0.18 0.18 0.18 84 1005.2
20260505034027 10 302 4.8 8.0 0.15 0.15 0.15 84 1005.3
20260505033522 11 308 4.8 8.0 0.13 0.13 0.13 83 1005.1
20260505033022 11 309 3.2 6.4 0.13 0.13 0.13 82 1005.0
20260505032520 11 309 1.6 4.8 0.10 0.10 0.10 81 1005.0
20260505032023 11 310 0.0 3.2 0.08 0.08 0.08 80 1004.9
20260505031520 11 310 0.0 3.2 0.05 0.05 0.05 80 1004.8
20260505031018 11 310 0.0 0.0 0.03 0.03 0.03 78 1004.7
20260505030518 11 310 0.0 0.0 0.00 0.00 0.00 78 1004.5
20260505030016 11 310 0.0 1.6 0.00 0.00 0.00 77 1004.4
20260505025518 11 310 0.0 1.6 0.00 0.00 0.00 77 1004.3
20260505025014 11 310 0.0 0.0 0.00 0.00 0.00 76 1004.2
20260505024514 11 310 0.0 3.2 0.00 0.00 0.00 76 1004.1
20260505024015 11 310 0.0 6.4 0.00 0.00 0.00 77 1004.1
20260505023513 11 310 1.6 9.7 0.00 0.00 0.00 77 1004.0
20260505023014 11 309 4.8 9.7 0.00 0.00 0.00 76 1004.0
20260505022514 11 309 3.2 8.0 0.00 0.00 0.00 75 1003.9
20260505022012 11 309 4.8 9.7 0.00 0.00 0.00 74 1003.8
20260505021512 11 309 6.4 9.7 0.00 0.00 0.00 74 1003.9
20260505021012 11 309 6.4 12.9 0.00 0.00 0.00 74 1004.0
20260505020511 11 306 6.4 12.9 0.00 0.00 0.00 74 1003.9
20260505020010 11 304 6.4 22.5 0.00 0.00 0.00 73 1004.0
20260505015510 12 303 12.9 22.5 0.00 0.00 0.00 69 1004.0
20260505015009 12 320 16.1 25.7 0.00 0.00 0.00 69 1003.9
20260505014513 13 302 20.9 25.7 0.00 0.00 0.00 64 1003.7
20260505014008 13 292 8.0 16.1 0.00 0.00 0.00 65 1003.6
20260505013510 13 301 6.4 8.0 0.00 0.00 0.00 61 1003.6
20260505013006 13 301 4.8 14.5 0.00 0.00 0.00 59 1003.7
20260505012506 13 304 9.7 17.7 0.00 0.00 0.00 59 1003.6
20260505012005 14 313 11.3 22.5 0.00 0.00 0.00 56 1003.4
20260505011505 14 314 16.1 24.1 0.00 0.00 0.00 52 1003.3
20260505011005 15 334 12.9 19.3 0.00 0.00 0.00 49 1003.1
20260505010505 15 338 12.9 19.3 0.00 0.00 0.00 49 1002.8
20260505010005 15 340 14.5 19.3 0.00 0.00 0.00 49 1002.6
20260505005507 15 349 12.9 19.3 0.00 0.00 0.00 48 1002.4
20260505005004 15 336 12.9 17.7 0.00 0.00 0.00 49 1002.3
20260505004506 15 337 11.3 19.3 0.00 0.00 0.00 49 1002.4
20260505004003 15 350 14.5 20.9 0.00 0.00 0.00 47 1002.3
20260505003503 15 342 16.1 25.7 0.00 0.00 0.00 47 1002.3
20260505003003 15 344 17.7 25.7 0.00 0.00 0.00 47 1002.4
20260505002503 15 346 16.1 22.5 0.00 0.00 0.00 47 1002.4
20260505002003 15 341 16.1 22.5 0.00 0.00 0.00 48 1002.4
20260505001503 15 339 16.1 27.4 0.00 0.00 0.00 48 1002.3
20260505001006 15 340 20.9 29.0 0.00 0.00 0.00 47 1002.4
20260505000505 15 342 17.7 29.0 0.00 0.00 0.00 46 1002.3
20260505000004 16 323 16.1 29.0 0.00 0.00 0.00 45 1002.4
20260504235502 16 339 6.4 20.9 0.00 0.00 0.00 40 1002.5
20260504235002 16 337 14.5 25.7 0.00 0.00 0.00 40 1002.4
20260504234502 16 360 12.9 25.7 0.00 0.00 0.00 39 1002.3
20260504234002 17 325 9.7 27.4 0.00 0.00 0.00 39 1002.5
20260504233502 17 250 14.5 27.4 0.00 0.00 0.00 38 1002.4
20260504233005 17 284 12.9 17.7 0.00 0.00 0.00 36 1002.2
20260504232505 17 312 9.7 17.7 0.00 0.00 0.00 35 1002.2
20260504232001 17 304 12.9 20.9 0.00 0.00 0.00 35 1002.3
20260504231501 17 340 12.9 20.9 0.00 0.00 0.00 35 1002.1
20260504231001 17 347 12.9 19.3 0.00 0.00 0.00 35 1001.9
20260504230503 17 349 11.3 22.5 0.00 0.00 0.00 35 1001.7
20260504230100 17 355 14.5 22.5 0.00 0.00 0.00 35 1001.5
20260504225601 17 348 12.9 22.5 0.00 0.00 0.00 34 1001.4
20260504225059 17 5 12.9 24.1 0.00 0.00 0.00 34 1001.2
20260504224600 17 28 17.7 27.4 0.00 0.00 0.00 34 1001.1
20260504224101 17 344 17.7 25.7 0.00 0.00 0.00 34 1000.8
20260504223604 18 17 16.1 30.6 0.00 0.00 0.00 33 1000.8
20260504223122 18 14 24.1 33.8 0.00 0.00 0.00 32 1000.7
20260504222602 18 18 19.3 33.8 0.00 0.00 0.00 31 1000.8
20260504222059 18 13 14.5 29.0 0.00 0.00 0.00 32 1000.8
20260504221603 18 31 16.1 25.7 0.00 0.00 0.00 31 1000.9
20260504221059 18 36 20.9 33.8 0.00 0.00 0.00 31 1000.8
20260504220559 18 360 20.9 33.8 0.00 0.00 0.00 30 1000.7
20260504215558 20 26 25.7 35.4 0.00 0.00 0.00 29 1000.8
20260504215058 19 17 14.5 33.8 0.00 0.00 0.00 30 1001.3
20260504214557 19 14 16.1 35.4 0.00 0.00 0.00 31 1001.6
20260504214100 19 9 22.5 35.4 0.00 0.00 0.00 31 1001.6
20260504213557 18 22 19.3 35.4 0.00 0.00 0.00 31 1001.6
20260504213106 18 351 22.5 35.4 0.00 0.00 0.00 32 1001.6
20260504212558 18 360 20.9 40.2 0.00 0.00 0.00 31 1001.7
20260504212057 18 345 27.4 40.2 0.00 0.00 0.00 33 1001.8
20260504211651 18 338 11.3 29.0 0.00 0.00 0.00 33 1002.0
20260504211056 17 278 22.5 29.0 0.00 0.00 0.00 34 1002.0
20260504210559 17 331 11.3 40.2 0.00 0.00 0.00 35 1001.9
20260504210056 17 329 22.5 40.2 0.00 0.00 0.00 40 1001.7
20260504205558 18 327 27.4 46.7 0.00 0.00 0.00 35 1001.2
20260504205053 19 342 27.4 46.7 0.00 0.00 0.00 28 1001.0
20260504204553 20 333 25.7 37.0 0.00 0.00 0.00 26 1000.6
20260504204054 20 328 27.4 43.5 0.00 0.00 0.00 25 1000.2
20260504203555 20 360 29.0 48.3 0.00 0.00 0.00 26 999.9
20260504203057 20 360 35.4 48.3 0.00 0.00 0.00 25 999.8
20260504202553 21 346 27.4 45.1 0.00 0.00 0.00 24 999.9
20260504202054 21 360 27.4 45.1 0.00 0.00 0.00 23 1000.0
20260504201559 22 342 25.7 38.6 0.00 0.00 0.00 22 1000.1
20260504201052 22 310 19.3 32.2 0.00 0.00 0.00 21 1000.1
20260504200552 22 343 19.3 33.8 0.00 0.00 0.00 20 1000.1
20260504200054 22 311 22.5 33.8 0.00 0.00 0.00 20 1000.1
20260504195551 22 290 14.5 29.0 0.00 0.00 0.00 19 1000.1
20260504195051 23 285 17.7 32.2 0.00 0.00 0.00 19 1000.1
20260504194555 23 295 20.9 35.4 0.00 0.00 0.00 19 1000.2
20260504194051 23 296 19.3 35.4 0.00 0.00 0.00 18 1000.2
20260504193551 23 285 19.3 29.0 0.00 0.00 0.00 18 1000.0
20260504193056 23 287 16.1 29.0 0.00 0.00 0.00 19 1000.1
20260504192551 23 271 19.3 32.2 0.00 0.00 0.00 18 1000.0
20260504192049 23 288 14.5 32.2 0.00 0.00 0.00 18 1000.2
20260504191607 22 324 22.5 30.6 0.00 0.00 0.00 18 1000.1
20260504191050 22 288 20.9 29.0 0.00 0.00 0.00 19 1000.0
20260504190550 23 275 20.9 33.8 0.00 0.00 0.00 18 1000.0
20260504190104 23 288 19.3 37.0 0.00 0.00 0.00 18 1000.1
20260504185547 23 311 20.9 35.4 0.00 0.00 0.00 19 1000.1
20260504185046 23 307 25.7 35.4 0.00 0.00 0.00 19 1000.0
20260504184551 23 313 20.9 35.4 0.00 0.00 0.00 18 1000.1
20260504184049 23 261 20.9 35.4 0.00 0.00 0.00 19 1000.1
20260504183548 23 261 20.9 30.6 0.00 0.00 0.00 18 1000.1
20260504183044 23 278 19.3 32.2 0.00 0.00 0.00 19 1000.3
20260504182545 23 306 25.7 32.2 0.00 0.00 0.00 19 1000.4
20260504182041 22 283 20.9 37.0 0.00 0.00 0.00 19 1000.5
20260504181540 22 284 24.1 37.0 0.00 0.00 0.00 19 1000.5
20260504181039 22 360 22.5 35.4 0.00 0.00 0.00 20 1000.5
20260504180538 22 303 24.1 35.4 0.00 0.00 0.00 20 1000.6
20260504180036 22 360 25.7 33.8 0.00 0.00 0.00 21 1000.7
20260504175535 22 360 16.1 25.7 0.00 0.00 0.00 22 1000.8
20260504175034 22 286 16.1 27.4 0.00 0.00 0.00 23 1001.1
20260504174536 22 291 19.3 30.6 0.00 0.00 0.00 23 1001.1
20260504174032 22 258 19.3 30.6 0.00 0.00 0.00 23 1001.2
20260504173532 21 277 17.7 29.0 0.00 0.00 0.00 24 1001.1
20260504173030 21 286 19.3 29.0 0.00 0.00 0.00 24 1001.2
20260504172529 21 292 20.9 32.2 0.00 0.00 0.00 24 1001.3
20260504172028 21 360 22.5 32.2 0.00 0.00 0.00 24 1001.4
20260504171529 21 267 20.9 33.8 0.00 0.00 0.00 25 1001.4
20260504171027 21 290 19.3 30.6 0.00 0.00 0.00 25 1001.5
20260504170524 20 265 19.3 30.6 0.00 0.00 0.00 26 1001.5
20260504151059 14 227 9.7 14.5 0.00 0.00 0.00 38 1002.3
20260504150554 14 227 9.7 14.5 0.00 0.00 0.00 38 1002.2
20260504141043 11 226 9.7 16.1 0.00 0.00 0.00 44 1002.4
20260504140548 11 223 11.3 16.1 0.00 0.00 0.00 44 1002.3
20260504130537 8 217 8.0 14.5 0.00 0.00 0.00 52 1002.3
20260504110520 7 240 4.8 11.3 0.00 0.00 0.00 55 1002.2